Content
SEND FEEDBACK

United States of America Flag

GREENSBURG, INDIANA


Home > North America > United States > Indiana
Elevation: 949 feet     Latitude: 39 20N     Longitude: 085 28W

WEATHER
 
SELECT A DAY
Number of Records: 191,751;   Date Range: 10/15/98 - 3/22/16
 
SHARE

PRINT THIS DATA

[ ← Previous Day ]
WEATHER ALMANAC - FEBRUARY 2, 2013
[ Next Day → ]
[ °C ]   °F
Weather ElementAverageHighLow
Temperature24.2 °F30 °F (1:53 pm)17.6 °F (3:38 am)
Dewpoint19 °F24.8 °F (7:09 pm)9 °F (1:53 am)
Humidity80.7 %86 % (5:08 am)68 % (1:53 am)
Barometer30.08 in30.26 in (1:53 am)29.98 in (1:12 pm)
Wind Speed9.9 mph15 mph (2:53 pm)
Weather ElementAverage
Visibility5.1 mi
Wind DirectionSSW (215.5 °)

Weather ElementTotal
Precipitation0.04 in
Heating Degree Days41.2 (Base 65)
Averaged from 55 records on February 2, 2013
WEATHER CONDITIONS BREAKOUT
WIND DIRECTION BREAKOUT
WEATHER BY HOUR - FEBRUARY 2, 2013
[ °C ]   °F
Local TimeTemperatureDewpointHumidityBarometerVisibilityWind DirectionWind SpeedGust SpeedPrecipitationEventsConditions
1:53 AM18.0 °F9.0 °F68 %30.26 in10.0 miSSW (200°)9.2 mphOvercast
2:53 AM19.0 °F10.0 °F68 %30.26 in10.0 miSouth (190°)10.4 mphOvercast
3:38 AM17.6 °F12.2 °F79 %30.20 in2.5 miSouth (180°)8.1 mph0.00 inSnowLight Snow
3:53 AM18.0 °F12.9 °F81 %30.24 in2.0 miSouth (190°)9.2 mph0.00 inSnowLight Snow
4:29 AM19.4 °F14.0 °F80 %30.19 in1.2 miSSW (200°)6.9 mph0.00 inSnowLight Snow
4:53 AM19.0 °F15.1 °F85 %30.23 in1.5 miSW (220°)4.6 mph0.01 inSnowLight Snow
5:08 AM19.4 °F15.8 °F86 %30.19 in3.0 miSSW (200°)4.6 mph0.00 inSnowLight Snow
5:28 AM19.4 °F15.8 °F86 %30.17 in2.0 miSouth (180°)8.1 mph0.00 inSnowLight Snow
5:37 AM19.4 °F15.8 °F86 %30.16 in1.8 miSouth (170°)9.2 mph0.00 inSnowLight Snow
5:48 AM19.4 °F15.8 °F86 %30.16 in2.0 miSouth (180°)9.2 mph0.00 inSnowLight Snow
5:53 AM19.0 °F15.1 °F85 %30.20 in2.0 miSouth (180°)8.1 mph0.00 inSnowLight Snow
6:00 AM19.4 °F15.8 °F86 %30.16 in1.5 miSouth (170°)6.9 mph0.00 inSnowLight Snow
6:15 AM19.4 °F15.8 °F86 %30.15 in1.5 miSSE (160°)9.2 mph0.01 inSnowLight Snow
6:30 AM19.4 °F15.8 °F86 %30.14 in2.5 miSouth (170°)9.2 mph0.01 inSnowLight Snow
6:36 AM19.4 °F15.8 °F86 %30.14 in4.0 miSSE (160°)10.4 mph0.01 inSnowLight Snow
7:05 AM19.4 °F15.8 °F86 %30.13 in1.5 miSouth (170°)10.4 mph0.00 inSnowLight Snow
7:15 AM19.4 °F15.8 °F86 %30.13 in1.5 miSouth (170°)11.5 mph0.00 inSnowLight Snow
7:17 AM19.4 °F15.8 °F86 %30.13 in2.0 miSouth (170°)11.5 mph0.00 inSnowLight Snow
7:21 AM19.4 °F15.8 °F86 %30.12 in3.0 miSouth (180°)12.7 mph0.00 inSnowLight Snow
7:40 AM19.4 °F15.8 °F86 %30.11 in2.5 miSouth (170°)12.7 mph0.00 inSnowLight Snow
7:53 AM19.9 °F16.0 °F85 %30.14 in3.0 miSSE (160°)12.7 mph0.00 inSnowLight Snow
8:53 AM21.9 °F17.1 °F82 %30.12 in10.0 miSouth (190°)12.7 mph0.00 inOvercast
9:53 AM23.0 °F19.0 °F85 %30.10 in10.0 miSouth (190°)10.4 mphOvercast
10:48 AM24.8 °F19.4 °F80 %30.05 in2.0 miSouth (190°)10.4 mph0.00 inSnowLight Snow
10:53 AM25.0 °F19.9 °F81 %30.08 in1.5 miSSW (200°)8.1 mph0.00 inSnowLight Snow
11:12 AM24.8 °F21.2 °F86 %30.04 in2.5 miSSW (200°)9.2 mph0.00 inSnowLight Snow
11:25 AM26.6 °F21.2 °F80 %30.04 in1.8 miSSW (200°)10.4 mph0.00 inSnowLight Snow
11:30 AM26.6 °F21.2 °F80 %30.04 in2.0 miSSW (210°)10.4 mph0.00 inSnowLight Snow
11:43 AM26.6 °F21.2 °F80 %30.03 in4.0 miSSW (210°)9.2 mph0.00 inSnowLight Snow
11:53 AM27.0 °F21.9 °F81 %30.06 in5.0 miSouth (190°)9.2 mph0.00 inSnowLight Snow
11:58 AM26.6 °F21.2 °F80 %30.02 in2.5 miSSW (200°)9.2 mph0.00 inSnowLight Snow
12:16 PM26.6 °F23.0 °F86 %30.02 in3.0 miSouth (190°)9.2 mph0.00 inSnowLight Snow
12:29 PM28.4 °F23.0 °F80 %30.01 in5.0 miSSW (200°)8.1 mph0.00 inSnowLight Snow
12:40 PM28.4 °F21.2 °F74 %30.00 in1.8 miSW (230°)13.8 mph0.00 inSnowLight Snow
12:53 PM28.9 °F21.9 °F75 %30.03 in1.2 miSW (230°)11.5 mph0.00 inSnowLight Snow
1:03 PM28.4 °F23.0 °F80 %29.99 in2.0 miSW (230°)11.5 mph0.00 inSnowLight Snow
1:12 PM28.4 °F23.0 °F80 %29.98 in5.0 miSW (230°)10.4 mph0.00 inSnowLight Snow
1:21 PM28.4 °F21.2 °F74 %29.98 in7.0 miSW (230°)11.5 mph0.00 inSnowLight Snow
1:53 PM30.0 °F23.0 °F75 %30.00 in10.0 miWSW (240°)10.4 mph0.00 inOvercast
2:53 PM30.0 °F21.9 °F72 %30.00 in10.0 miWSW (250°)15.0 mphOvercast
3:53 PM30.0 °F23.0 °F75 %30.00 in10.0 miWSW (250°)12.7 mphOvercast
4:53 PM30.0 °F21.9 °F72 %30.01 in10.0 miWest (270°)11.5 mphOvercast
5:53 PM28.9 °F24.1 °F82 %30.02 in5.0 miWest (260°)9.2 mph0.00 inSnowLight Snow
6:53 PM28.9 °F24.1 °F82 %30.03 in5.0 miWest (270°)9.2 mph0.00 inSnowLight Snow
7:09 PM28.4 °F24.8 °F86 %30.00 in7.0 miWest (270°)9.2 mph0.00 inOvercast
7:53 PM28.9 °F24.1 °F82 %30.03 in9.0 miWest (260°)8.1 mph0.00 inOvercast
8:18 PM28.4 °F24.8 °F86 %30.00 in8.0 miWest (260°)8.1 mphOvercast
8:31 PM28.4 °F23.0 °F80 %30.01 in9.0 miWest (270°)10.4 mphOvercast
8:53 PM28.9 °F23.0 °F78 %30.04 in10.0 miWest (270°)9.2 mphOvercast
9:30 PM28.4 °F23.0 °F80 %30.00 in10.0 miWest (270°)8.1 mphOvercast
9:50 PM28.4 °F23.0 °F80 %30.00 in9.0 miWest (270°)6.9 mphOvercast
9:53 PM28.9 °F23.0 °F78 %30.03 in9.0 miWest (270°)6.9 mphOvercast
10:53 PM25.0 °F17.1 °F72 %30.04 in10.0 miWNW (300°)12.7 mph0.00 inOvercast
11:18 PM23.0 °F15.8 °F74 %30.02 in10.0 miWNW (300°)12.7 mphOvercast
11:53 PM21.9 °F14.0 °F72 %30.05 in10.0 miWest (280°)11.5 mphOvercast
Hourly data recorded from KGEZ, located miles away from Greensburg, Indiana




STORIES FROM OUR PARTNERS